Misión y Visión

La misión es proporcionar información fiable a la navegación aérea, contribuyendo a la seguridad, regularidad y eficiencia de la Navegación Aérea Internacional

La visión es contribuir sustancialmente al desarrollo de conocimientos y a la utilización de la meteorología aeronáutica a nivel nacional e internacional, mediante la innovación y la coparticipación con sectores sociales y productivos de la sociedad.

 
  Inicio
  Metar
  Taf
  Wintemp
  SIGMET
  Avisos
  Pronósticos
  Carpeta Meteorologica
  Imágenes Satelitales
  Climatología Aeronáutica
   
  ¿Quienes Somos?
  Contacto
  Eventos



DIRECCIONES PARA INFORMES NACIONALES E INTERNACIONALES
(Metar /Speci - TAF)



http://adds.aviationweather.gov/tafs/index.php

http://www.ogimet.com/metars.phtml



PRONÓSTICOS DE AERÓDROMO

Cuando sea necesario, el encabezamiento abreviado puede incluir un cuarto grupo consistente en tres letras para identificar los boletines demorados (RRA), corregidos(CCA) o enmendados (AAA). Los boletines adicionales demorados, corregidos o enmendados deben identificarse con las letras RRB, RRC, etc.; CCB, CCC,etc.;AAB, AAC,etc.



ESTACIONES DESCRIPCION
MPTO (M) 170100Z 03007KT CAVOK 26/20 Q1011 NOSIG=  
MPBO (M) 180200Z 00000KT 99999 SCT018 SCT090 Q1017  
MPCH (M) 180100Z 00000KT 9999 SCT020 ///// Q1017  
MPSA (M)  
MPCE (M)  
MPPN (M)  
MPSM (M) 180200Z 34006KT 9999 FEW030 26/20 Q1012  
MPJE (M)  
MPPA (M) 180200Z 02009KT 9999 FEW018 25/21 Q1013  
MPMG (M) 180300Z 31004KT C A V O K 25/21 Q1014 NOSIG  
MPDA (M) 180100Z 36014KT(E) 9999 FEW020 Q1010  
MPVR (M)  
MPWN (M)  
MPOA (M) 171800Z 35012KT 9999 SCT020 SCT090 Q1012  
MPMF (M) 171300Z 00000KT 9999 SCT025 Q1013  
MPEJ (M) 171800Z 02015KT 9000 FEW020 29/// Q1013 HZ ALQDS=  


CLIMATICAS

MPTO

31-03-2016

PCPN

T° MAX

T° MIN

VIENTO MAX (KT)

HORA

VIENTO PREDOM (KT)

0.0

34.8

20.0

18015KT

1700Z

VRB 05KT

CLIMATICAS

MPMG

17-01-2017

PCPN

T° MAX

T° MIN

VIENTO MAX (KT)

HORA

VIENTO PREDOM (KT)

     0.0

31.3

21.6

34007KT

            2200Z                                    SE

 

 
 



























  Noticias AAC
  Directorio
  Contáctenos
  Historia
  Quejas y Sugerencias
  Etica y Transparencia

  Gestión SSP/SMS
  Seguridad Aérea
  Navegación Aérea
  Transporte Aéreo

  Tramites
  Áeronaves de Alquiler

  Meteorología
  I.S.F.P.A
  Notam
  Peligro Aviario
  AVSEC
  UPIA
  Permisos
 




DECLARACIÓN DE PRIVACIDAD